Regional Weather Roundup
Issued by NWS Little Rock, AR

Home | Current Version | Previous Version | Text Only | Print | Product List | Glossary On
Versions: 1 2 3 4 5 6 7 8 9 10 11 12 13 14 15 16 17 18 19 20 21 22 23 24 25 26 27 28 29 30 31 32
000
ASUS44 KLZK 221305
RWRLZK

WEATHER ROUNDUP FOR ARKANSAS
NATIONAL WEATHER SERVICE LITTLE ROCK AR
800 AM CDT SUN APR 22 2018

NOTE: "FAIR" INDICATES FEW OR NO CLOUDS BELOW 12,000 FEET WITH NO
SIGNIFICANT WEATHER AND/OR OBSTRUCTIONS TO VISIBILITY.

ARZ001-003-010-029-221400-
NORTHWEST ARKANSAS

CITY           SKY/WX    TMP DP  RH WIND       PRES   REMARKS
FAYETTEVILLE   CLOUDY    53  52  96 NW8       29.96R
FORT SMITH     CLOUDY    52  51  97 W16       29.97R
HARRISON       RAIN      52  52 100 CALM      29.96F FOG
BENTONVILLE    LGT RAIN  51  50  96 CALM      29.98R FOG
ROGERS         CLOUDY    50  50 100 CALM      29.97R FOG
SILOAM SPGS    LGT RAIN  50  50 100 W7        29.97R
HIGHFILL       CLOUDY    52  51  97 CALM      29.96R FOG
SPRINGDALE     CLOUDY    52  52 100 CALM      29.97R FOG
$$

ARZ004-005-016-221400-
NORTH CENTRAL ARKANSAS

CITY           SKY/WX    TMP DP  RH WIND       PRES   REMARKS
BATESVILLE     CLOUDY    58  57  97 E8        29.96S
FLIPPIN        LGT RAIN  56  55  97 NE6       29.96  FOG
MTN HOME       LGT RAIN  54  54 100 E9        29.95F FOG
$$

ARZ040-041-221400-
WEST CENTRAL ARKANSAS

CITY           SKY/WX    TMP DP  RH WIND       PRES   REMARKS
MENA           CLOUDY    55  54  94 W10       29.97R
MOUNT IDA      CLOUDY    57  57 100 CALM      29.92S
$$

ARZ009-017-025-026-028-221400-
NORTHEAST ARKANSAS

CITY           SKY/WX    TMP DP  RH WIND       PRES   REMARKS
CORNING        FAIR      55  55 100 E15       30.04S FOG
JONESBORO      LGT RAIN  56  56 100 E18G30    29.98F FOG
NEWPORT        CLOUDY    57  56  96 E24G31    29.91F
WALNUT RIDGE   LGT RAIN  56  54  93 E23G31    29.96F
BLYTHEVILLE    RAIN      56  54  93 E7        30.05S FOG
$$

ARZ022-023-033-042-044-221400-
CENTRAL ARKANSAS

CITY           SKY/WX    TMP DP  RH WIND       PRES   REMARKS
LITTLE ROCK    CLOUDY    59  59 100 CALM      29.93S
N LITTLE ROCK    N/A     58  57  99 CALM      29.90S
JACKSONVILLE   CLOUDY    59  59 100 CALM      29.92S
CONWAY         PTSUNNY   59  59 100 CALM      29.93S
SEARCY         CLOUDY    60  60 100 E7        29.94S
HOT SPRINGS    CLOUDY    59  59 100 CALM      29.93S
RUSSELLVILLE   CLOUDY    56  55  97 CALM      29.93S
CLINTON        CLOUDY    59  57  94 CALM      29.94S
$$

ARZ036-221400-
EAST ARKANSAS

CITY           SKY/WX    TMP DP  RH WIND       PRES   REMARKS
WEST MEMPHIS   HVY RAIN  58  58 100 E9        29.97F FOG
$$

ARZ050-053-066-070-073-221400-
SOUTHWEST ARKANSAS

CITY           SKY/WX    TMP DP  RH WIND       PRES   REMARKS
ARKADELPHIA    CLOUDY    58  58 100 W7        29.94S
CAMDEN         CLOUDY    61  57  88 CALM      29.93R FOG
TEXARKANA      CLOUDY    57  57 100 NW10      29.96R
EL DORADO      CLOUDY    59  59 100 CALM      29.94S FOG
DE QUEEN       CLOUDY    57  56  96 W7        29.96R
$$

ARZ056-057-069-221400-
SOUTHEAST ARKANSAS

CITY           SKY/WX    TMP DP  RH WIND       PRES   REMARKS
PINE BLUFF     CLOUDY    60  60 100 W5        29.93S
STUTTGART      CLOUDY    62  59  90 W6        29.93R
MONTICELLO     CLOUDY    60  58  92 NW5       29.92R

$$






USA.gov is the U.S. government's official web portal to all federal, state and local government web resources and services.